Content
SEND FEEDBACK

Daily
Averages
Monthly
Summary
United States of America

ROHNERVILLE, CALIFORNIA


Home > North America > United States > California
Elevation: 390 feet     Latitude: 40 33N     Longitude: 124 07W

WEATHER
 
SELECT A DAY
Number of Records: 64,826;   Date Range: 9/21/11 - 10/24/14
 
SHARE

PRINT THIS DATA

[ ← Previous Day ]
WEATHER ALMANAC - NOVEMBER 1, 2013
[ Next Day → ]
[ °C ]   °F
Weather ElementAverageHighLow
Temperature49.6 °F62.6 °F (12:55 pm)44.6 °F (7:55 am)
Dewpoint47.3 °F51.8 °F (12:35 pm)42.8 °F (7:55 am)
Humidity92.6 %100 % (12:55 am)68 % (12:55 pm)
Barometer30.13 in30.19 in (12:35 am)30.06 in (9:35 pm)
Wind Speed6.9 mph12.7 mph (4:15 pm)
Weather ElementAverage
Visibility6.2 mi
Wind DirectionS (175.6 °)

Weather ElementTotal
Precipitation---
Heating Degree Days11.4 (Base 65)
Growing Degree Days3.6 (Base 50)
Averaged from 71 records on November 1, 2013
WEATHER CONDITIONS BREAKOUT
WIND DIRECTION BREAKOUT
WEATHER BY HOUR - NOVEMBER 1, 2013
[ °C ]   °F
Local TimeTemperatureDewpointHumidityBarometerVisibilityWind DirectionWind SpeedGust SpeedPrecipitationEventsConditions
12:35 AM48.2 °F46.4 °F93 %30.19 in10.0 miSE (140°)4.6 mphScattered Clouds
12:55 AM48.2 °F48.2 °F100 %30.19 in8.0 miESE (120°)6.9 mphScattered Clouds
1:15 AM48.2 °F48.2 °F100 %30.18 in0.8 miESE (120°)8.1 mphOvercast
1:35 AM48.2 °F48.2 °F100 %30.18 in0.8 miESE (110°)9.2 mphOvercast
1:55 AM48.2 °F48.2 °F100 %30.18 in10.0 miESE (110°)6.9 mphMostly Cloudy
2:15 AM48.2 °F46.4 °F93 %30.18 in10.0 miNorth (350°)3.5 mphPartly Cloudy
2:35 AM46.4 °F46.4 °F100 %30.18 in0.8 miCalm
2:55 AM46.4 °F46.4 °F100 %30.17 in0.2 miCalm
3:15 AM46.4 °F46.4 °F100 %30.17 in10.0 miESE (120°)5.8 mphClear
3:35 AM46.4 °F46.4 °F100 %30.16 in8.0 miESE (110°)6.9 mphMostly Cloudy
3:55 AM48.2 °F48.2 °F100 %30.15 in0.2 miSE (130°)8.1 mphOvercast
4:15 AM46.4 °F46.4 °F100 %30.15 in10.0 miESE (110°)11.5 mphMostly Cloudy
4:35 AM46.4 °F46.4 °F100 %30.14 in10.0 miESE (110°)10.4 mphOvercast
4:55 AM46.4 °F46.4 °F100 %30.14 in10.0 miESE (120°)8.1 mphMostly Cloudy
5:15 AM46.4 °F44.6 °F93 %30.14 in10.0 miESE (120°)10.4 mph
5:35 AM46.4 °F44.6 °F93 %30.15 in10.0 miESE (110°)8.1 mph
5:55 AM46.4 °F44.6 °F93 %30.15 in10.0 miSE (130°)5.8 mphClear
6:15 AM46.4 °F44.6 °F93 %30.16 in10.0 miSE (130°)4.6 mphPartly Cloudy
6:35 AM46.4 °F46.4 °F100 %30.16 in10.0 miSE (130°)6.9 mphMostly Cloudy
6:55 AM46.4 °F46.4 °F100 %30.15 in10.0 miSE (130°)6.9 mphMostly Cloudy
7:15 AM46.4 °F46.4 °F100 %30.15 in0.8 miSE (130°)10.4 mphMostly Cloudy
7:35 AM46.4 °F44.6 °F93 %30.15 in10.0 miESE (120°)11.5 mphClear
7:55 AM44.6 °F42.8 °F93 %30.15 in10.0 miSE (130°)11.5 mphClear
8:15 AM44.6 °F44.6 °F100 %30.15 in10.0 miSE (130°)10.4 mphClear
8:35 AM46.4 °F46.4 °F100 %30.16 in10.0 miSE (130°)11.5 mphClear
8:55 AM46.4 °F44.6 °F93 %30.17 in10.0 miSE (130°)9.2 mphClear
9:15 AM48.2 °F46.4 °F93 %30.17 in10.0 miSE (130°)8.1 mphClear
9:35 AM50.0 °F46.4 °F87 %30.17 in10.0 miSE (140°)5.8 mphClear
9:55 AM50.0 °F46.4 °F87 %30.17 in10.0 miSE (140°)3.5 mphClear
10:15 AM53.6 °F48.2 °F82 %30.17 in10.0 miCalmClear
10:35 AM55.4 °F48.2 °F77 %30.17 in10.0 miCalmClear
10:55 AM57.2 °F48.2 °F72 %30.17 in10.0 miNW (310°)4.6 mphClear
11:15 AM57.2 °F50.0 °F77 %30.17 in10.0 miNNW (330°)4.6 mphClear
11:35 AM57.2 °F50.0 °F77 %30.17 in10.0 miNW (310°)6.9 mphClear
11:55 AM57.2 °F50.0 °F77 %30.17 in10.0 miNW (320°)5.8 mphClear
12:15 PM59.0 °F50.0 °F72 %30.16 in9.0 miNW (320°)4.6 mphClear
12:35 PM59.0 °F51.8 °F77 %30.15 in10.0 miNorth (360°)4.6 mphClear
12:55 PM62.6 °F51.8 °F68 %30.14 in10.0 miNW (310°)4.6 mphClear
1:15 PM62.6 °F51.8 °F68 %30.13 in10.0 miWNW (300°)9.2 mphClear
1:35 PM59.0 °F51.8 °F77 %30.13 in10.0 miWNW (300°)10.4 mphClear
1:55 PM59.0 °F51.8 °F77 %30.12 in10.0 miWNW (300°)8.1 mphClear
2:15 PM59.0 °F50.0 °F72 %30.12 in10.0 miNW (310°)8.1 mphClear
2:35 PM59.0 °F50.0 °F72 %30.12 in10.0 miWNW (300°)11.5 mphClear
2:55 PM55.4 °F50.0 °F82 %30.11 in10.0 miNW (310°)10.4 mphClear
3:15 PM55.4 °F48.2 °F77 %30.11 in10.0 miNW (310°)9.2 mphClear
3:35 PM53.6 °F50.0 °F88 %30.10 in10.0 miNW (320°)8.1 mphClear
3:55 PM53.6 °F50.0 °F88 %30.11 in10.0 miNW (310°)10.4 mphClear
4:15 PM50.0 °F48.2 °F94 %30.11 in3.0 miWNW (300°)12.7 mphScattered Clouds
4:35 PM48.2 °F48.2 °F100 %30.11 in0.2 miNW (310°)11.5 mphMostly Cloudy
4:55 PM48.2 °F48.2 °F100 %30.11 in0.2 miNW (310°)8.1 mph
5:15 PM48.2 °F48.2 °F100 %30.11 in0.2 miNW (310°)8.1 mph
5:35 PM48.2 °F48.2 °F100 %30.10 in0.2 miNNW (330°)5.8 mph
5:55 PM48.2 °F48.2 °F100 %30.09 in0.2 miNW (310°)3.5 mph
6:15 PM48.2 °F48.2 °F100 %30.09 in0.2 miCalm
6:35 PM46.4 °F46.4 °F100 %30.09 in0.2 miCalm
6:55 PM46.4 °F46.4 °F100 %30.09 in0.2 miCalm
7:15 PM46.4 °F46.4 °F100 %30.09 in0.2 miCalm
7:35 PM46.4 °F46.4 °F100 %30.09 in0.2 miSE (140°)3.5 mph
7:55 PM46.4 °F46.4 °F100 %30.09 in0.2 miSSE (150°)3.5 mph
8:15 PM46.4 °F46.4 °F100 %30.08 in0.2 miSE (140°)4.6 mph
8:35 PM46.4 °F46.4 °F100 %30.08 in0.2 miSE (130°)5.8 mph
8:55 PM46.4 °F46.4 °F100 %30.07 in0.2 miSE (140°)9.2 mph
9:15 PM46.4 °F46.4 °F100 %30.07 in0.2 miSE (140°)8.1 mph
9:35 PM46.4 °F46.4 °F100 %30.06 in0.2 miSSE (150°)9.2 mph
9:55 PM46.4 °F46.4 °F100 %30.06 in0.2 miSSE (150°)8.1 mph
10:15 PM46.4 °F46.4 °F100 %30.06 in0.2 miSE (140°)9.2 mph
10:35 PM44.6 °F44.6 °F100 %30.07 in0.2 miSSE (150°)8.1 mph
10:55 PM44.6 °F44.6 °F100 %30.07 in0.2 miSSE (150°)9.2 mph
11:15 PM46.4 °F46.4 °F100 %30.06 in10.0 miSE (130°)11.5 mphClear
11:35 PM44.6 °F44.6 °F100 %30.06 in10.0 miSE (140°)6.9 mphClear
11:55 PM44.6 °F44.6 °F100 %30.06 in1.2 miSSE (150°)6.9 mphClear
Hourly data recorded from KFOT, located miles away from Rohnerville, California







STORIES FROM OUR PARTNERS